FW0822 Weather Reports


time (UTC)temp
F
wind
direction
speed
knots
gust
knots
rain 1hr
in
rain 24hr
in
rain mn
in
humidity
%
barometer
mb
20260504184600 81 207 0.0 0.0 0.00 0.00 0.00 35 1015.8
20260504183053 80 257 0.0 0.0 0.00 0.00 0.00 34 1015.9
20260504181542 80 256 0.0 0.0 0.00 0.00 0.00 34 1016.2
20260504180042 79 211 0.0 0.0 0.00 0.00 0.00 36 1016.2
20260504174539 78 228 0.0 0.9 0.00 0.00 0.00 36 1016.3
20260504173034 77 240 0.0 0.0 0.00 0.00 0.00 35 1016.6
20260504171540 75 212 0.0 0.0 0.00 0.00 0.00 38 1016.7
20260504120124 45 73 0.0 0.0 0.00 0.00 0.00 82 1018.2
20260504081503 47 219 0.0 0.0 0.00 0.00 0.00 71 1018.2
20260504070104 48 219 0.0 0.0 0.00 0.00 0.00 68 1017.8
20260504044559 50 219 0.0 0.0 0.00 0.00 0.00 61 1018.2
20260504043154 50 219 0.0 0.0 0.00 0.00 0.00 61 1018.1
20260504041554 50 219 0.0 0.0 0.00 0.00 0.00 60 1018.2
20260504040054 50 219 0.0 0.0 0.00 0.00 0.00 60 1018.1
20260504034608 50 219 0.0 0.0 0.00 0.00 0.00 59 1018.3
20260504033053 51 219 0.0 0.0 0.00 0.00 0.00 59 1018.2
20260504031553 51 219 0.0 0.0 0.00 0.00 0.00 58 1018.1
20260504030052 52 219 0.0 0.0 0.00 0.00 0.00 57 1018.4
20260504024552 52 219 0.0 0.0 0.00 0.00 0.00 57 1018.1
20260504023052 53 219 0.0 0.0 0.00 0.00 0.00 54 1018.1
20260504021554 54 219 0.0 0.0 0.00 0.00 0.00 54 1017.9
20260504020056 54 219 0.0 0.0 0.00 0.00 0.00 52 1017.9
20260504014606 55 219 0.0 0.0 0.00 0.00 0.00 50 1017.7
20260504013053 57 219 0.0 0.0 0.00 0.00 0.00 48 1017.8
20260504011557 58 219 0.0 0.0 0.00 0.00 0.00 45 1017.8
20260504010058 59 219 0.0 0.0 0.00 0.00 0.00 44 1017.6
20260504004550 60 219 0.0 0.0 0.00 0.00 0.00 42 1017.4
20260504003053 62 219 0.0 0.0 0.00 0.00 0.00 40 1017.2
20260504001549 62 219 0.0 0.0 0.00 0.00 0.00 38 1017.1
20260504000049 63 219 0.0 0.0 0.00 0.00 0.00 36 1017.0
20260503234550 63 219 0.0 0.0 0.00 0.00 0.00 34 1017.1
20260503233048 64 219 0.0 0.0 0.00 0.00 0.00 33 1017.0
20260503231548 64 217 0.0 0.0 0.00 0.00 0.00 32 1017.1
20260503230045 64 227 0.0 0.0 0.00 0.00 0.00 31 1017.1
20260503224545 64 243 0.0 0.0 0.00 0.00 0.00 31 1017.2
20260503223044 64 257 0.0 0.0 0.00 0.00 0.00 30 1017.4
20260503221542 64 216 0.0 0.0 0.00 0.00 0.00 31 1017.4
20260503220048 64 217 0.0 3.5 0.00 0.00 0.00 30 1017.6
20260503214540 64 219 0.0 2.6 0.00 0.00 0.00 30 1017.7
20260503213040 64 221 0.0 0.9 0.00 0.00 0.00 30 1018.0
20260503211538 64 243 0.0 1.7 0.00 0.00 0.00 30 1018.0
20260503210040 64 196 0.0 0.0 0.00 0.00 0.00 29 1017.9
20260503204539 64 237 0.0 0.0 0.00 0.00 0.00 30 1017.8
20260503203038 64 214 0.0 0.0 0.00 0.00 0.00 30 1018.1
20260503201540 65 227 0.0 0.0 0.00 0.00 0.00 29 1018.4
20260503200043 65 245 0.0 0.9 0.00 0.00 0.00 30 1018.6
20260503194539 66 218 0.0 2.6 0.00 0.00 0.00 28 1018.6
20260503193041 68 220 0.0 0.0 0.00 0.00 0.00 27 1018.8
20260503191536 69 223 0.0 0.0 0.00 0.00 0.00 26 1019.2
20260503190034 69 256 0.0 1.7 0.00 0.00 0.00 27 1019.4